�������l�o���
Date,Time,MP-1(��Sv/h),MP-2(��Sv/h),MP-3(��Sv/h),MP-4(��Sv/h),MP-5(��Sv/h),MP-6(��Sv/h),MP-7(��Sv/h),MP-8(��Sv/h),����,����(m/s),���J
2020/09/15,00:00,0.656,0.933,0.603,1.155,0.825,0.383,0.667,0.630,�k�k��,6.9,�L
2020/09/15,00:10,0.656,0.933,0.601,1.157,0.823,0.381,0.667,0.631,�k�k��,7.8,�L
2020/09/15,00:20,0.656,0.934,0.603,1.157,0.823,0.383,0.667,0.627,�k�k��,6.5,�L
2020/09/15,00:30,0.657,0.932,0.602,1.157,0.823,0.382,0.667,0.631,�k,5.7,�L
2020/09/15,00:40,0.657,0.931,0.602,1.155,0.822,0.382,0.667,0.629,�k,6.4,�L
2020/09/15,00:50,0.656,0.930,0.602,1.155,0.822,0.381,0.666,0.627,�k�k��,6.0,�L
2020/09/15,01:00,0.655,0.932,0.600,1.155,0.822,0.382,0.668,0.628,�k�k��,5.9,�L
2020/09/15,01:10,0.657,0.935,0.602,1.155,0.822,0.382,0.668,0.628,�k�k��,5.9,�L
2020/09/15,01:20,0.654,0.933,0.601,1.158,0.825,0.382,0.667,0.631,�k�k��,5.3,�L
2020/09/15,01:30,0.655,0.932,0.602,1.155,0.823,0.383,0.666,0.628,�k�k��,4.9,�L
2020/09/15,01:40,0.655,0.933,0.602,1.153,0.822,0.384,0.666,0.628,�k�k��,5.8,�L
2020/09/15,01:50,0.654,0.933,0.602,1.156,0.823,0.383,0.666,0.629,�k�k��,6.3,�L
2020/09/15,02:00,0.652,0.931,0.600,1.156,0.822,0.382,0.665,0.628,�k�k��,6.4,�L
2020/09/15,02:10,0.653,0.930,0.602,1.156,0.822,0.382,0.666,0.627,�k�k��,6.1,�L
2020/09/15,02:20,0.652,0.929,0.601,1.154,0.820,0.381,0.665,0.626,�k,5.8,�L
2020/09/15,02:30,0.652,0.929,0.601,1.154,0.818,0.383,0.666,0.627,�k,5.8,�L
2020/09/15,02:40,0.652,0.930,0.601,1.154,0.821,0.381,0.665,0.625,�k,5.6,��
2020/09/15,02:50,0.651,0.929,0.601,1.151,0.821,0.380,0.666,0.628,�k,5.4,�L
2020/09/15,03:00,0.651,0.928,0.600,1.154,0.822,0.383,0.666,0.626,�k�k��,4.6,�L
2020/09/15,03:10,0.651,0.930,0.600,1.153,0.820,0.383,0.665,0.627,�k,3.8,�L
2020/09/15,03:20,0.652,0.928,0.600,1.152,0.820,0.383,0.665,0.627,�k�k��,4.2,�L
2020/09/15,03:30,0.653,0.929,0.601,1.154,0.819,0.384,0.664,0.627,�k�k��,4.8,�L
2020/09/15,03:40,0.655,0.933,0.600,1.153,0.819,0.383,0.666,0.627,�k�k��,4.9,�L
2020/09/15,03:50,0.653,0.933,0.599,1.154,0.820,0.382,0.665,0.629,�k�k��,5.5,�L
2020/09/15,04:00,0.653,0.929,0.599,1.152,0.819,0.383,0.666,0.628,�k,5.4,��
2020/09/15,04:10,0.652,0.932,0.600,1.155,0.821,0.383,0.665,0.628,�k�k��,5.4,�L
2020/09/15,04:20,0.656,0.928,0.599,1.154,0.821,0.381,0.666,0.630,�k�k��,6.5,��
2020/09/15,04:30,0.656,0.931,0.601,1.153,0.822,0.383,0.666,0.629,�k�k��,5.7,��
2020/09/15,04:40,0.654,0.931,0.601,1.153,0.819,0.381,0.667,0.627,�k�k��,6.1,�L
2020/09/15,04:50,0.655,0.932,0.601,1.153,0.821,0.382,0.666,0.630,�k�k��,6.2,��
2020/09/15,05:00,0.654,0.931,0.601,1.154,0.820,0.382,0.666,0.628,�k�k��,5.6,��
2020/09/15,05:10,0.654,0.931,0.603,1.153,0.821,0.382,0.666,0.630,�k�k��,4.7,��
2020/09/15,05:20,0.654,0.932,0.602,1.152,0.821,0.383,0.667,0.629,�k�k��,4.6,��
2020/09/15,05:30,0.654,0.932,0.599,1.155,0.819,0.382,0.666,0.630,�k�k��,4.7,��
2020/09/15,05:40,0.654,0.930,0.602,1.154,0.819,0.382,0.666,0.629,�k�k��,4.6,��
2020/09/15,05:50,0.654,0.930,0.602,1.154,0.822,0.383,0.666,0.629,�k�k��,4.7,��
2020/09/15,06:00,0.653,0.930,0.600,1.153,0.822,0.382,0.668,0.628,�k�k��,5.1,��
2020/09/15,06:10,0.655,0.932,0.602,1.153,0.822,0.381,0.668,0.630,�k,4.6,��
2020/09/15,06:20,0.654,0.929,0.604,1.156,0.821,0.382,0.665,0.629,�k�k��,4.6,��
2020/09/15,06:30,0.654,0.930,0.602,1.156,0.822,0.382,0.665,0.630,�k�k��,4.7,��
2020/09/15,06:40,0.653,0.931,0.601,1.156,0.821,0.382,0.666,0.629,�k�k��,4.0,��
2020/09/15,06:50,0.653,0.932,0.601,1.155,0.822,0.382,0.666,0.629,�k,2.9,��
2020/09/15,07:00,0.654,0.929,0.601,1.153,0.821,0.383,0.668,0.629,�k,3.3,��
2020/09/15,07:10,0.654,0.928,0.600,1.154,0.820,0.382,0.668,0.630,�k�k��,3.6,��
2020/09/15,07:20,0.656,0.929,0.602,1.156,0.820,0.383,0.666,0.630,�k�k��,3.7,�L
2020/09/15,07:30,0.653,0.930,0.602,1.156,0.821,0.382,0.667,0.628,�k�k��,3.7,�L
2020/09/15,07:40,0.655,0.929,0.602,1.156,0.821,0.383,0.667,0.626,�k,2.6,��
2020/09/15,07:50,0.654,0.928,0.601,1.158,0.821,0.382,0.667,0.627,�k,3.9,�L
2020/09/15,08:00,0.654,0.928,0.603,1.158,0.821,0.382,0.665,0.628,�k�k��,3.6,�L
2020/09/15,08:10,0.652,0.925,0.599,1.156,0.821,0.381,0.666,0.628,�k,3.6,�L
2020/09/15,08:20,0.653,0.924,0.599,1.155,0.819,0.381,0.669,0.629,�k,3.5,��
2020/09/15,08:30,0.653,0.925,0.596,1.152,0.821,0.382,0.668,0.628,�k�k��,3.7,��
2020/09/15,08:40,0.653,0.923,0.597,1.157,0.821,0.381,0.667,0.627,�k�k��,3.3,��
2020/09/15,08:50,0.653,0.924,0.594,1.156,0.821,0.381,0.667,0.628,�k��,3.1,��
2020/09/15,09:00,0.656,0.923,0.596,1.157,0.822,0.382,0.668,0.629,�k,2.3,��
2020/09/15,09:10,0.654,0.923,0.597,1.157,0.822,0.381,0.667,0.627,�k�k��,2.0,��
2020/09/15,09:20,0.654,0.923,0.597,1.154,0.821,0.380,0.668,0.627,�k�k��,3.5,��
2020/09/15,09:30,0.654,0.923,0.598,1.155,0.820,0.381,0.669,0.628,�k�k��,3.8,��
2020/09/15,09:40,0.655,0.925,0.597,1.154,0.820,0.381,0.668,0.626,�k�k��,3.9,��
2020/09/15,09:50,0.654,0.924,0.597,1.154,0.820,0.382,0.668,0.628,�k�k��,4.1,��
2020/09/15,10:00,0.655,0.925,0.597,1.155,0.822,0.381,0.667,0.627,�k�k��,3.7,��
2020/09/15,10:10,0.657,0.927,0.598,1.156,0.823,0.381,0.668,0.629,�k�k��,4.1,��
2020/09/15,10:20,0.656,0.925,0.599,1.154,0.822,0.381,0.670,0.630,�k��,4.0,��
2020/09/15,10:30,0.657,0.929,0.598,1.154,0.823,0.382,0.668,0.629,�k�k��,4.3,��
2020/09/15,10:40,0.657,0.927,0.601,1.153,0.825,0.383,0.668,0.629,�k�k��,3.9,��
2020/09/15,10:50,0.659,0.929,0.600,1.154,0.823,0.383,0.669,0.629,�k�k��,3.8,��
2020/09/15,11:00,0.655,0.930,0.600,1.156,0.826,0.382,0.667,0.629,�k��,3.4,��
2020/09/15,11:10,0.659,0.928,0.600,1.156,0.824,0.382,0.669,0.630,�k��,3.0,��
2020/09/15,11:20,0.657,0.929,0.601,1.154,0.822,0.382,0.668,0.629,�k��,3.1,��
2020/09/15,11:30,0.658,0.929,0.602,1.152,0.825,0.383,0.668,0.629,�k��,3.4,��
2020/09/15,11:40,0.659,0.931,0.601,1.153,0.826,0.381,0.669,0.628,�k�k��,3.8,��
2020/09/15,11:50,0.659,0.933,0.601,1.155,0.826,0.382,0.669,0.628,�k�k��,3.7,��
2020/09/15,12:00,0.658,0.930,0.601,1.155,0.823,0.382,0.669,0.629,�k��,3.6,��
2020/09/15,12:10,0.659,0.934,0.603,1.156,0.825,0.381,0.670,0.628,�k,2.6,��
2020/09/15,12:20,0.658,0.935,0.602,1.154,0.826,0.382,0.672,0.628,�k,3.6,��
2020/09/15,12:30,0.658,0.935,0.603,1.156,0.826,0.383,0.670,0.629,�k�k��,3.0,��
2020/09/15,12:40,0.658,0.937,0.601,1.154,0.826,0.382,0.669,0.628,�k�k��,2.8,��
2020/09/15,12:50,0.658,0.935,0.601,1.155,0.827,0.382,0.670,0.629,���k��,3.0,��
2020/09/15,13:00,0.658,0.933,0.601,1.157,0.828,0.384,0.669,0.630,���k��,2.6,��
2020/09/15,13:10,0.658,0.935,0.603,1.155,0.827,0.385,0.670,0.627,�k��,2.3,��
2020/09/15,13:20,0.660,0.933,0.602,1.155,0.827,0.381,0.670,0.630,���k��,2.3,��
2020/09/15,13:30,0.659,0.932,0.603,1.156,0.827,0.383,0.667,0.628,�k��,2.3,��
2020/09/15,13:40,0.661,0.931,0.602,1.159,0.828,0.383,0.666,0.628,���k��,2.2,��
2020/09/15,13:50,0.661,0.932,0.603,1.155,0.828,0.383,0.670,0.629,�k��,2.0,��
2020/09/15,14:00,0.660,0.932,0.603,1.156,0.828,0.383,0.668,0.628,�k��,1.7,��
2020/09/15,14:10,0.659,0.932,0.603,1.156,0.826,0.384,0.669,0.630,���k��,1.9,��
2020/09/15,14:20,0.658,0.932,0.604,1.157,0.825,0.382,0.670,0.630,�k��,2.2,��
2020/09/15,14:30,0.660,0.931,0.602,1.158,0.828,0.384,0.669,0.629,���k��,2.3,��
2020/09/15,14:40,0.659,0.934,0.605,1.159,0.826,0.383,0.669,0.630,���k��,2.3,��
2020/09/15,14:50,0.658,0.934,0.604,1.160,0.828,0.383,0.672,0.630,���k��,2.0,��
2020/09/15,15:00,0.660,0.934,0.603,1.162,0.831,0.384,0.673,0.630,���k��,1.7,��
2020/09/15,15:10,0.661,0.936,0.603,1.158,0.829,0.383,0.670,0.629,�k��,2.3,��
2020/09/15,15:20,0.659,0.938,0.604,1.159,0.827,0.382,0.671,0.631,���k��,2.6,��
2020/09/15,15:30,0.660,0.938,0.604,1.156,0.830,0.383,0.669,0.630,���k��,2.6,��
2020/09/15,15:40,0.660,0.939,0.604,1.156,0.829,0.383,0.671,0.631,��,1.9,��
2020/09/15,15:50,0.658,0.939,0.604,1.159,0.827,0.384,0.670,0.629,��,2.5,��
2020/09/15,16:00,0.659,0.939,0.606,1.157,0.827,0.383,0.672,0.629,���k��,2.2,��
2020/09/15,16:10,0.660,0.939,0.606,1.158,0.829,0.383,0.671,0.629,���k��,2.6,��
2020/09/15,16:20,0.658,0.940,0.603,1.158,0.830,0.381,0.670,0.630,���k��,2.8,��
2020/09/15,16:30,0.660,0.939,0.605,1.158,0.829,0.383,0.670,0.630,���k��,2.2,��
2020/09/15,16:40,0.660,0.942,0.604,1.159,0.829,0.385,0.672,0.629,���k��,2.8,��
2020/09/15,16:50,0.659,0.942,0.603,1.160,0.831,0.384,0.670,0.628,�k��,2.3,��
2020/09/15,17:00,0.662,0.942,0.604,1.160,0.830,0.383,0.668,0.632,�k��,2.5,��
2020/09/15,17:10,0.661,0.943,0.607,1.162,0.832,0.386,0.671,0.632,�k��,2.3,��
2020/09/15,17:20,0.661,0.943,0.607,1.161,0.832,0.384,0.670,0.629,�k��,2.2,��
2020/09/15,17:30,0.659,0.943,0.607,1.163,0.834,0.385,0.671,0.632,�k��,2.0,��
2020/09/15,17:40,0.661,0.944,0.606,1.163,0.834,0.384,0.670,0.630,��,1.9,��
2020/09/15,17:50,0.662,0.943,0.607,1.161,0.833,0.385,0.672,0.631,�k��,1.7,��
2020/09/15,18:00,0.662,0.942,0.607,1.162,0.832,0.384,0.670,0.632,�k��,1.9,��
2020/09/15,18:10,0.661,0.944,0.607,1.166,0.833,0.384,0.672,0.630,�k��,1.5,��
2020/09/15,18:20,0.663,0.943,0.607,1.161,0.832,0.383,0.670,0.633,���k��,1.1,��
2020/09/15,18:30,0.664,0.942,0.607,1.164,0.833,0.383,0.672,0.632,�k,1.5,��
2020/09/15,18:40,0.663,0.943,0.607,1.164,0.831,0.384,0.672,0.632,���k��,1.2,��
2020/09/15,18:50,0.664,0.943,0.608,1.164,0.832,0.383,0.672,0.631,���쓌,0.6,��
2020/09/15,19:00,0.661,0.943,0.607,1.163,0.831,0.385,0.671,0.631,���k��,0.8,��
2020/09/15,19:10,0.662,0.942,0.608,1.161,0.833,0.384,0.672,0.632,�k��,0.8,��
2020/09/15,19:20,0.662,0.944,0.607,1.163,0.830,0.384,0.672,0.631,�k,0.9,��
2020/09/15,19:30,0.662,0.940,0.606,1.163,0.832,0.386,0.671,0.632,�k��,0.9,��
2020/09/15,19:40,0.662,0.944,0.606,1.163,0.833,0.385,0.671,0.631,�k�k��,0.9,��
2020/09/15,19:50,0.662,0.943,0.607,1.162,0.833,0.385,0.672,0.632,�k�k��,1.1,��
2020/09/15,20:00,0.663,0.941,0.606,1.164,0.833,0.384,0.671,0.633,�k�k��,1.2,��
2020/09/15,20:10,0.663,0.944,0.607,1.165,0.833,0.383,0.672,0.632,�k�k��,1.1,��
2020/09/15,20:20,0.662,0.944,0.606,1.162,0.833,0.384,0.673,0.633,�k�k��,1.2,��
2020/09/15,20:30,0.663,0.943,0.607,1.163,0.832,0.386,0.671,0.632,�k,1.5,��
2020/09/15,20:40,0.663,0.944,0.605,1.166,0.832,0.385,0.673,0.631,�k,1.2,��
2020/09/15,20:50,0.662,0.942,0.607,1.164,0.831,0.385,0.673,0.633,�k,1.7,��
2020/09/15,21:00,0.661,0.944,0.608,1.163,0.830,0.386,0.673,0.632,�k,2.0,��
2020/09/15,21:10,0.664,0.943,0.607,1.163,0.833,0.384,0.674,0.632,�k,1.9,��
2020/09/15,21:20,0.662,0.943,0.607,1.165,0.833,0.386,0.670,0.631,�k,2.3,��
2020/09/15,21:30,0.663,0.940,0.607,1.162,0.832,0.384,0.672,0.633,�k,2.2,��
2020/09/15,21:40,0.663,0.943,0.608,1.165,0.833,0.385,0.672,0.632,�k,2.0,��
2020/09/15,21:50,0.663,0.943,0.607,1.163,0.833,0.385,0.673,0.633,�k,1.5,��
2020/09/15,22:00,0.663,0.942,0.606,1.164,0.833,0.385,0.673,0.632,�k,2.3,��
2020/09/15,22:10,0.663,0.942,0.608,1.162,0.833,0.385,0.673,0.632,�k,1.9,��
2020/09/15,22:20,0.664,0.942,0.609,1.163,0.834,0.385,0.672,0.632,�k,2.0,��
2020/09/15,22:30,0.662,0.941,0.607,1.164,0.832,0.385,0.672,0.632,�k�k��,1.4,��
2020/09/15,22:40,0.663,0.943,0.607,1.162,0.832,0.384,0.672,0.632,�k�k��,2.0,��
2020/09/15,22:50,0.662,0.941,0.608,1.163,0.831,0.385,0.671,0.632,�k�k��,2.0,��
2020/09/15,23:00,0.663,0.942,0.606,1.163,0.832,0.385,0.671,0.631,�k�k��,1.7,��
2020/09/15,23:10,0.662,0.942,0.607,1.164,0.833,0.385,0.672,0.632,�k�k��,0.9,��
2020/09/15,23:20,0.662,0.941,0.606,1.161,0.834,0.386,0.673,0.631,�k�k��,1.7,��
2020/09/15,23:30,0.663,0.942,0.605,1.163,0.831,0.383,0.672,0.632,�k�k��,1.7,��
2020/09/15,23:40,0.662,0.942,0.609,1.165,0.832,0.386,0.672,0.632,�k�k��,2.0,��
2020/09/15,23:50,0.664,0.942,0.608,1.164,0.834,0.385,0.672,0.633,�k�k��,2.0,��
